When you browse on this site, cookies collect data to enhance your experience and personalize the content and advertising you see.
Visit our Privacy Policy to learn more. By continuing to use the site, you agree to this use of cookies and data.
  • In Hungary
  • List of Countries
  • For 7 days
  • Water Temperature
  • Weather Map
  • News
  • Weather Widgets
  • user-avatar
    Login

    Hourly Weather Voykovskiy

    Today, 6 June, Saturday

    Time Temperature Precipitation Wind Pressure Humidity
    00:00 +17°C° 1.5 mm 4 mps 743 mmHg 78%
    01:00 +14°C° 1.5 mm 3 mps 742 mmHg 89%
    02:00 +14°C° 0.4 mm 4 mps 742 mmHg 81%
    03:00 +14°C° 0.4 mm 5 mps 742 mmHg 73%
    04:00 +14°C° 0 mm 5 mps 743 mmHg 58%
    05:00 +14°C° 0.3 mm 5 mps 743 mmHg 61%
    06:00 +14°C° 0.3 mm 6 mps 742 mmHg 64%
    07:00 +15°C° 0.3 mm 6 mps 742 mmHg 67%
    08:00 +15°C° 0.3 mm 6 mps 742 mmHg 66%
    09:00 +16°C° 0.3 mm 6 mps 743 mmHg 66%
    10:00 +17°C° 0 mm 6 mps 743 mmHg 64%
    11:00 +20°C° 0.2 mm 6 mps 743 mmHg 63%
    12:00 +21°C° 0.2 mm 5 mps 743 mmHg 61%
    13:00 +23°C° 0.2 mm 5 mps 743 mmHg 59%
    14:00 +23°C° 0.6 mm 5 mps 743 mmHg 61%
    15:00 +23°C° 0.6 mm 5 mps 743 mmHg 62%
    16:00 +22°C° 0.6 mm 5 mps 743 mmHg 64%
    17:00 +22°C° 0.5 mm 4 mps 743 mmHg 68%
    18:00 +21°C° 0.5 mm 3 mps 743 mmHg 72%
    19:00 +20°C° 0.5 mm 3 mps 743 mmHg 76%
    20:00 +19°C° 0.1 mm 2 mps 743 mmHg 79%
    21:00 +18°C° 0.1 mm 2 mps 744 mmHg 82%
    22:00 +16°C° 0.1 mm 2 mps 744 mmHg 85%
    23:00 +16°C° 0 mm 2 mps 744 mmHg 85%

    Tomorrow, 7 June, Sunday

    Time Temperature Precipitation Wind Pressure Humidity
    00:00 +16°C° 0 mm 2 mps 744 mmHg 85%
    01:00 +16°C° 0 mm 2 mps 744 mmHg 85%
    02:00 +15°C° 0 mm 2 mps 744 mmHg 86%
    03:00 +15°C° 0 mm 2 mps 744 mmHg 87%
    04:00 +15°C° 0 mm 2 mps 745 mmHg 87%
    05:00 +16°C° 0.3 mm 3 mps 745 mmHg 87%
    06:00 +16°C° 0.3 mm 3 mps 744 mmHg 86%
    07:00 +17°C° 0.3 mm 4 mps 744 mmHg 85%
    08:00 +17°C° 1.5 mm 4 mps 744 mmHg 87%
    09:00 +17°C° 1.5 mm 3 mps 745 mmHg 89%
    10:00 +17°C° 1.5 mm 3 mps 745 mmHg 90%
    11:00 +17°C° 1.1 mm 3 mps 745 mmHg 90%
    12:00 +17°C° 1.1 mm 3 mps 745 mmHg 90%
    13:00 +17°C° 1.1 mm 3 mps 744 mmHg 90%
    14:00 +17°C° 1.1 mm 3 mps 745 mmHg 91%
    15:00 +17°C° 1.1 mm 3 mps 745 mmHg 91%
    16:00 +17°C° 1.1 mm 3 mps 745 mmHg 91%
    17:00 +17°C° 0.7 mm 3 mps 744 mmHg 92%
    18:00 +15°C° 0.7 mm 4 mps 744 mmHg 92%
    19:00 +15°C° 0.7 mm 4 mps 744 mmHg 93%
    20:00 +15°C° 0 mm 4 mps 744 mmHg 94%
    21:00 +14°C° 0 mm 3 mps 744 mmHg 95%
    22:00 +14°C° 0 mm 3 mps 744 mmHg 96%
    23:00 +14°C° 0.1 mm 3 mps 744 mmHg 96%

    Day after tomorrow, 8 June, Monday

    Time Temperature Precipitation Wind Pressure Humidity
    00:00 +14°C° 0.1 mm 2 mps 744 mmHg 97%
    01:00 +14°C° 0.1 mm 2 mps 744 mmHg 97%
    02:00 +14°C° 0.5 mm 2 mps 744 mmHg 97%
    03:00 +15°C° 0.5 mm 2 mps 744 mmHg 97%
    04:00 +15°C° 0.5 mm 2 mps 744 mmHg 97%
    05:00 +15°C° 0 mm 2 mps 744 mmHg 95%
    06:00 +16°C° 0 mm 3 mps 744 mmHg 93%
    07:00 +17°C° 0 mm 3 mps 744 mmHg 91%
    08:00 +18°C° 0.3 mm 3 mps 744 mmHg 85%
    09:00 +19°C° 0.3 mm 3 mps 744 mmHg 79%
    10:00 +21°C° 0.3 mm 3 mps 744 mmHg 73%
    11:00 +21°C° 1.4 mm 4 mps 744 mmHg 72%
    12:00 +21°C° 1.4 mm 5 mps 744 mmHg 71%
    13:00 +22°C° 1.4 mm 6 mps 744 mmHg 70%
    14:00 +20°C° 1.1 mm 5 mps 744 mmHg 75%
    15:00 +19°C° 1.1 mm 5 mps 744 mmHg 79%
    16:00 +17°C° 1.1 mm 5 mps 744 mmHg 83%
    17:00 +17°C° 0.3 mm 5 mps 744 mmHg 83%
    18:00 +18°C° 0.3 mm 4 mps 744 mmHg 82%
    19:00 +18°C° 0.3 mm 3 mps 744 mmHg 81%
    20:00 +18°C° 0 mm 3 mps 744 mmHg 78%
    21:00 +17°C° 0 mm 4 mps 744 mmHg 75%
    22:00 +17°C° 0 mm 4 mps 745 mmHg 71%
    23:00 +15°C° 0 mm 4 mps 745 mmHg 73%

    9 June, Tuesday

    Time Temperature Precipitation Wind Pressure Humidity
    00:00 +15°C° 0 mm 4 mps 745 mmHg 74%
    01:00 +16°C° 0 mm 3 mps 745 mmHg 75%
    02:00 +15°C° 0 mm 4 mps 745 mmHg 75%
    03:00 +15°C° 0 mm 4 mps 745 mmHg 74%
    04:00 +15°C° 0 mm 4 mps 745 mmHg 74%
    05:00 +17°C° 0 mm 4 mps 746 mmHg 73%
    06:00 +16°C° 0 mm 5 mps 746 mmHg 71%
    07:00 +17°C° 0 mm 5 mps 746 mmHg 69%
    08:00 +19°C° 0 mm 6 mps 747 mmHg 67%
    09:00 +20°C° 0 mm 6 mps 747 mmHg 64%
    10:00 +22°C° 0 mm 6 mps 748 mmHg 61%
    11:00 +23°C° 0 mm 7 mps 748 mmHg 57%
    12:00 +24°C° 0 mm 8 mps 748 mmHg 53%
    13:00 +26°C° 0 mm 8 mps 748 mmHg 49%
    14:00 +24°C° 0 mm 7 mps 748 mmHg 51%
    15:00 +24°C° 0 mm 6 mps 748 mmHg 52%
    16:00 +25°C° 0 mm 4 mps 748 mmHg 54%
    17:00 +25°C° 0 mm 4 mps 748 mmHg 57%
    18:00 +23°C° 0 mm 4 mps 748 mmHg 60%
    19:00 +23°C° 0 mm 4 mps 747 mmHg 63%
    20:00 +22°C° 0 mm 5 mps 748 mmHg 61%
    21:00 +21°C° 0 mm 5 mps 748 mmHg 59%
    22:00 +20°C° 0 mm 5 mps 748 mmHg 57%
    23:00 +19°C° 0 mm 5 mps 748 mmHg 58%

    10 June, Wednesday

    Time Temperature Precipitation Wind Pressure Humidity
    00:00 +19°C° 0 mm 5 mps 748 mmHg 58%
    01:00 +19°C° 0 mm 5 mps 748 mmHg 59%
    02:00 +17°C° 0 mm 5 mps 748 mmHg 59%
    03:00 +17°C° 0 mm 5 mps 748 mmHg 59%
    04:00 +16°C° 0 mm 5 mps 748 mmHg 59%
    05:00 +17°C° 0 mm 5 mps 748 mmHg 60%
    06:00 +19°C° 0 mm 5 mps 748 mmHg 60%
    07:00 +20°C° 0 mm 6 mps 749 mmHg 61%
    08:00 +22°C° 0 mm 6 mps 749 mmHg 57%
    09:00 +23°C° 0 mm 6 mps 749 mmHg 54%
    10:00 +26°C° 0 mm 6 mps 749 mmHg 51%
    11:00 +27°C° 0 mm 6 mps 749 mmHg 49%
    12:00 +28°C° 0 mm 6 mps 749 mmHg 46%
    13:00 +28°C° 0 mm 6 mps 749 mmHg 44%
    14:00 +29°C° 0 mm 5 mps 749 mmHg 44%
    15:00 +29°C° 0 mm 5 mps 749 mmHg 44%
    16:00 +29°C° 0 mm 5 mps 749 mmHg 44%
    17:00 +28°C° 0 mm 4 mps 749 mmHg 48%
    18:00 +27°C° 0 mm 4 mps 749 mmHg 52%
    19:00 +26°C° 0 mm 3 mps 749 mmHg 56%
    20:00 +25°C° 0 mm 3 mps 749 mmHg 57%
    21:00 +23°C° 0 mm 4 mps 749 mmHg 58%
    22:00 +21°C° 0 mm 4 mps 749 mmHg 58%
    23:00 +21°C° 0 mm 4 mps 749 mmHg 58%

    11 June, Thursday

    Time Temperature Precipitation Wind Pressure Humidity
    00:00 +20°C° 0 mm 4 mps 749 mmHg 59%
    01:00 +20°C° 0 mm 4 mps 749 mmHg 59%
    02:00 +19°C° 0 mm 4 mps 748 mmHg 61%
    03:00 +19°C° 0 mm 3 mps 748 mmHg 63%
    04:00 +18°C° 0 mm 3 mps 748 mmHg 65%
    05:00 +19°C° 0 mm 3 mps 748 mmHg 65%
    06:00 +20°C° 0 mm 3 mps 749 mmHg 66%
    07:00 +21°C° 0 mm 4 mps 749 mmHg 66%
    08:00 +23°C° 0 mm 4 mps 749 mmHg 62%
    09:00 +25°C° 0 mm 4 mps 749 mmHg 58%
    10:00 +27°C° 0 mm 3 mps 749 mmHg 54%
    11:00 +28°C° 0 mm 3 mps 749 mmHg 49%
    12:00 +29°C° 0 mm 3 mps 748 mmHg 45%
    13:00 +30°C° 0 mm 2 mps 748 mmHg 40%
    14:00 +30°C° 0 mm 2 mps 748 mmHg 39%
    15:00 +31°C° 0 mm 2 mps 748 mmHg 37%
    16:00 +31°C° 0 mm 2 mps 747 mmHg 36%
    17:00 +30°C° 0 mm 1 mps 747 mmHg 41%
    18:00 +29°C° 0 mm 1 mps 747 mmHg 45%
    19:00 +28°C° 0 mm 1 mps 747 mmHg 50%
    20:00 +27°C° 0 mm 1 mps 747 mmHg 51%
    21:00 +25°C° 0 mm 1 mps 747 mmHg 52%
    22:00 +23°C° 0 mm 1 mps 746 mmHg 54%
    23:00 +23°C° 0 mm 1 mps 746 mmHg 56%
    Show more